{"data":{"norad_id":56378,"intl_designator":"2023-061E","name":"STARLINK-6191","alt_names":[],"object_type":"PAYLOAD","status":"ACTIVE","operator":null,"country":"US","launch_date":"2023-05-04","launch_site_code":"AFETR","launch_vehicle":null,"mission":null,"orbit_class":"UNKNOWN","rcs_meters":null,"size_class":null,"mass_kg":null,"dimensions":null,"purposes":["comms"],"wikipedia_slug":null,"has_3d_model":false,"image_url":null,"decayed_at":null,"tle_current":{"epoch":"2026-05-24T09:57:51.373152Z","epoch_age_seconds":121649,"freshness":"FRESH","line1":"1 56378U 23061E   26144.41517793  .00000885  00000+0  41673-4 0  9990","line2":"2 56378  43.0041 130.0025 0001590 279.9066  80.1607 15.27576803168335","mean_motion":15.27576803,"eccentricity":0.000159,"inclination_deg":43.0041,"raan_deg":130.0025,"arg_perigee_deg":279.9066,"mean_anomaly_deg":80.1607,"bstar":4.1673e-5,"rev_number":16833,"period_min":94.266946000489,"perigee_km":481.96773891309,"apogee_km":484.14959913584,"semimajor_km":6861.1956690245,"source":"CELESTRAK","updated_at":"2026-05-25T13:38:18.010986Z"}}}